Location: Holcomb Observatory and Planetarium
(39.8415°N, 86.1714°W)
Time: 06:28:14
(UTC-04:00)

Hubble Space Telescope - Visible Passes

Search period start: 05 May 2016 00:00
Search period end: 15 May 2016 00:00
Orbit: 539 x 543 km, 28.5° (Epoch: 04 May)

Date Brightness Start Highest point End Pass type
(mag) Time Alt. Az. Time Alt. Az. Time Alt. Az.
05 May 3.0 04:41:14 14° SSE 04:41:14 14° SSE 04:42:17 10° SE visible
06 May 3.2 04:32:13 11° SE 04:32:13 11° SE 04:32:35 10° SE visible
07 May 2.9 05:59:49 10° SSW 06:00:39 10° SSW 06:01:29 10° S visible
14 May 2.9 21:59:17 10° S 22:00:22 11° SSE 22:00:22 11° SSE visible
